Location: Gwatt
(46.7204°N, 7.6223°E)
Time: 04:30:29
(UTC+00:00)

S-56A Canister/Altair - Pass Details

Date: 29 January 2021
Orbit: 631 x 2501 km, 38.9° (Epoch: 05 March)

Event Time Altitude Azimuth Distance (km) Brightness Sun altitude
Exits shadow 04:33:54 20° 187° (S) 1,547 9.0 -24.6°
Drops below altitude 10° 04:37:01 10° 149° (SSE) 2,272 10.3 -24.1°
Sets 04:40:17 0° 134° (SE) 3,422 11.6 -23.5°
